Вернуться в каталог

STARLINK-3198

АктивенСвязьVLEO
NORAD 49763·PAYLOAD·🇺🇸 United States

Запущен Dec 2, 2021 с Cape Canaveral Space Force Station

Loading…

Ближайшие Пролёты (ближайшие 24 часа)

TLE

СвежийSource: CelesTrak SupGP

Эпоха: Sep 14, 2026, 20:02 UTC

1 49763C 21115AR  26257.83520833  .00000556  00000+0  17897-4 0  2571
2 49763  53.1588   0.1462 0001346  73.4537 115.3190 15.31699182    13

Отслеживайте STARLINK-3198 в реальном времени с AllMySat

Download on the App Store